DateTime,Voltage,Setpoint_Voltage,VVC_ClosedLoop_Enabled,Real_Power
 03/09/2018 00:00:00,10.77,10.9,1,-1.31
 03/09/2018 00:15:00,10.77,10.9,1,-1.31
 03/09/2018 00:30:00,10.77,10.9,1,-1.31
 03/09/2018 00:45:00,10.77,10.9,1,-1.31
 03/09/2018 01:00:00,10.77,10.9,1,-1.31
 03/09/2018 01:15:00,10.77,10.9,1,-1.31
 03/09/2018 01:30:00,10.77,10.9,1,-1.31
 03/09/2018 01:45:00,10.77,10.9,1,-1.31
 03/09/2018 02:00:00,10.77,10.9,1,-1.31
 03/09/2018 02:15:00,10.77,10.9,1,-1.31
 03/09/2018 02:30:00,10.77,10.9,1,-1.31
 03/09/2018 02:45:00,10.77,10.9,1,-1.31
 03/09/2018 03:00:00,10.77,10.9,1,-1.31
 03/09/2018 03:15:00,10.77,10.9,1,-1.31
 03/09/2018 03:30:00,10.77,10.9,1,-1.31
 03/09/2018 03:45:00,10.77,10.9,1,-1.31
 03/09/2018 04:00:00,10.77,10.9,1,-1.31
 03/09/2018 04:15:00,10.77,10.9,1,-1.31
 03/09/2018 04:30:00,10.77,10.9,1,-1.31
 03/09/2018 04:45:00,10.77,10.9,1,-1.31
 03/09/2018 05:00:00,10.77,10.9,1,-1.31
 03/09/2018 05:15:00,10.77,10.9,1,-1.31
 03/09/2018 05:30:00,10.77,10.9,1,-1.31
 03/09/2018 05:45:00,10.77,10.9,1,-1.31
 03/09/2018 06:00:00,10.77,10.9,1,-1.31
 03/09/2018 06:15:00,10.77,10.9,1,-1.31
 03/09/2018 06:30:00,10.77,10.9,1,-1.31
 03/09/2018 06:45:00,10.77,10.9,1,-1.31
 03/09/2018 07:00:00,10.77,10.9,1,-1.31
 03/09/2018 07:15:00,10.77,10.9,1,-1.31
 03/09/2018 07:30:00,10.77,10.9,1,-1.31
 03/09/2018 07:45:00,10.77,10.9,1,-1.31
 03/09/2018 08:00:00,10.77,10.9,1,-1.31
 03/09/2018 08:15:00,10.77,10.9,1,-1.31
 03/09/2018 08:30:00,10.77,10.9,1,-1.31
 03/09/2018 08:45:00,10.77,10.9,1,-1.31
 03/09/2018 09:00:00,10.83,10.9,1,-0.83
 03/09/2018 09:15:00,10.84,10.9,1,-0.81
 03/09/2018 09:30:00,10.86,10.9,1,-0.32
 03/09/2018 09:45:00,10.88,10.9,1,0.11
 03/09/2018 10:00:00,10.91,10.9,1,1.01
 03/09/2018 10:15:00,10.91,10.9,1,0.18
 03/09/2018 10:30:00,10.87,10.9,1,1.7
 03/09/2018 10:45:00,10.87,10.9,1,1.69
 03/09/2018 11:00:00,10.86,10.9,1,2.01
 03/09/2018 11:15:00,10.85,10.9,1,2.27
 03/09/2018 11:30:00,10.83,10.9,1,2.15
 03/09/2018 11:45:00,10.83,10.9,1,2.28
 03/09/2018 12:00:00,10.83,10.9,1,2.45
 03/09/2018 12:15:00,10.83,10.9,1,2.38
 03/09/2018 12:30:00,10.82,10.9,1,2.34
 03/09/2018 12:45:00,10.82,10.9,1,2.25
 03/09/2018 13:00:00,10.84,10.9,1,2.48
 03/09/2018 13:15:00,10.84,10.9,1,2.66
 03/09/2018 13:30:00,10.84,10.9,1,1.29
 03/09/2018 13:45:00,10.83,10.9,1,1.31
 03/09/2018 14:00:00,10.82,10.9,1,-0.21
 03/09/2018 14:15:00,10.79,10.9,1,-0.01
 03/09/2018 14:30:00,10.8,10.9,1,0.38
 03/09/2018 14:45:00,10.8,10.9,1,-0.02
 03/09/2018 15:00:00,10.8,10.9,1,-0.38
 03/09/2018 15:15:00,10.79,10.9,1,-0.64
 03/09/2018 15:30:00,10.77,10.9,1,-0.82
 03/09/2018 15:45:00,10.8,10.9,1,-0.46
 03/09/2018 16:00:00,10.78,10.9,1,-0.79
 03/09/2018 16:15:00,10.77,10.9,1,-1.16
 03/09/2018 16:30:00,10.76,10.9,1,-1.39
 03/09/2018 16:45:00,10.76,10.9,1,-1.11
 03/09/2018 17:00:00,10.74,10.9,1,-1.0
 03/09/2018 17:15:00,10.74,10.9,1,-1.3
 03/09/2018 17:30:00,10.7,10.9,1,-1.56
 03/09/2018 17:45:00,10.7,10.9,1,-1.64
 03/09/2018 18:00:00,10.7,10.9,1,-1.71
 03/09/2018 18:15:00,10.7,10.9,1,-1.9
 03/09/2018 18:30:00,10.7,10.9,1,-1.98
 03/09/2018 18:45:00,10.69,10.9,1,-1.85
 03/09/2018 19:00:00,10.69,10.9,1,-1.7
 03/09/2018 19:15:00,10.7,10.9,1,-1.69
 03/09/2018 19:30:00,10.7,10.9,1,-2.08
 03/09/2018 19:45:00,10.72,10.9,1,-2.03
 03/09/2018 20:00:00,10.73,10.9,1,-1.98
 03/09/2018 20:15:00,10.7,10.9,1,-2.02
 03/09/2018 20:30:00,10.72,10.9,1,-2.02
 03/09/2018 20:45:00,10.73,10.9,1,-1.91
 03/09/2018 21:00:00,10.76,10.9,1,-1.79
 03/09/2018 21:15:00,10.78,10.9,1,-1.85
 03/09/2018 21:30:00,10.83,10.9,1,-1.75
 03/09/2018 21:45:00,10.85,10.9,1,-1.72
 03/09/2018 22:00:00,10.88,10.9,1,-1.68
 03/09/2018 22:15:00,10.89,10.9,1,-1.49
 03/09/2018 22:30:00,10.91,10.9,1,-1.37
 03/09/2018 22:45:00,10.95,10.9,1,-1.31
 03/09/2018 23:00:00,10.97,10.9,1,-1.31
 03/09/2018 23:15:00,10.99,10.9,1,-1.27
 03/09/2018 23:30:00,10.96,10.9,1,-1.21
 03/09/2018 23:45:00,11.01,10.9,1,-1.07
 04/09/2018 00:00:00,11.02,10.9,1,-0.87
 04/09/2018 00:15:00,10.88,10.9,1,-0.87
 04/09/2018 00:30:00,10.91,10.9,1,-0.87
 04/09/2018 00:45:00,10.94,10.9,1,-0.87
 04/09/2018 01:00:00,10.94,10.9,1,-0.78
 04/09/2018 01:15:00,10.93,10.9,1,-0.97
 04/09/2018 01:30:00,10.92,10.9,1,-1.01
 04/09/2018 01:45:00,10.95,10.9,1,-0.97
 04/09/2018 02:00:00,10.98,10.9,1,-0.87
 04/09/2018 02:15:00,10.95,10.9,1,-0.87
 04/09/2018 02:30:00,10.99,10.9,1,-0.87
 04/09/2018 02:45:00,11.02,10.9,1,-0.87
 04/09/2018 03:00:00,11.01,10.9,1,-0.79
 04/09/2018 03:15:00,11.02,10.9,1,-0.87
 04/09/2018 03:30:00,11.0,10.9,1,-0.87
 04/09/2018 03:45:00,11.02,10.9,1,-0.82
 04/09/2018 04:00:00,11.03,10.9,1,-0.74
 04/09/2018 04:15:00,11.01,10.9,1,-0.81
 04/09/2018 04:30:00,11.03,10.9,1,-0.84
 04/09/2018 04:45:00,11.01,10.9,1,-0.84
 04/09/2018 05:00:00,11.0,10.9,1,-0.84
 04/09/2018 05:15:00,10.99,10.9,1,-0.88
 04/09/2018 05:30:00,10.97,10.9,1,-0.91
 04/09/2018 05:45:00,10.97,10.9,1,-0.91
 04/09/2018 06:00:00,10.96,10.9,1,-0.99
 04/09/2018 06:15:00,10.91,10.9,1,-1.16
 04/09/2018 06:30:00,10.87,10.9,1,-1.21
 04/09/2018 06:45:00,10.82,10.9,1,-1.34
 04/09/2018 07:00:00,10.8,10.9,1,-1.41
 04/09/2018 07:15:00,10.72,10.9,1,-1.52
 04/09/2018 07:30:00,10.68,10.9,1,-1.51
 04/09/2018 07:45:00,10.76,10.9,1,-1.51
 04/09/2018 08:00:00,10.78,10.9,1,-1.43
 04/09/2018 08:15:00,10.75,10.9,1,-1.43
 04/09/2018 08:30:00,10.73,10.9,1,-1.38
 04/09/2018 08:45:00,10.72,10.9,1,-1.25
 04/09/2018 09:00:00,10.76,10.9,1,-1.28
 04/09/2018 09:15:00,10.76,10.9,1,-1.24
 04/09/2018 09:30:00,10.76,10.9,1,-1.17
 04/09/2018 09:45:00,10.8,10.9,1,-1.01
 04/09/2018 10:00:00,10.85,10.9,1,-0.4
 04/09/2018 10:15:00,10.96,10.9,1,-0.48
 04/09/2018 10:30:00,10.94,10.9,1,-0.42
 04/09/2018 10:45:00,10.95,10.9,1,-0.46
 04/09/2018 11:00:00,10.95,10.9,1,-0.23
 04/09/2018 11:15:00,10.93,10.9,1,0.26
 04/09/2018 11:30:00,10.95,10.9,1,0.19
 04/09/2018 11:45:00,10.94,10.9,1,0.24
 04/09/2018 12:00:00,10.95,10.9,1,0.25
 04/09/2018 12:15:00,10.98,10.9,1,0.4
 04/09/2018 12:30:00,10.99,10.9,1,1.0
 04/09/2018 12:45:00,11.0,10.9,1,0.42
 04/09/2018 13:00:00,11.0,10.9,1,0.14
 04/09/2018 13:15:00,11.0,10.9,1,0.3
 04/09/2018 13:30:00,10.94,10.9,1,1.15
 04/09/2018 13:45:00,10.88,10.9,1,1.74
 04/09/2018 14:00:00,10.87,10.9,1,0.9
 04/09/2018 14:15:00,10.86,10.9,1,1.05
 04/09/2018 14:30:00,10.92,10.9,1,1.51
 04/09/2018 14:45:00,10.92,10.9,1,1.31
 04/09/2018 15:00:00,10.9,10.9,1,1.14
 04/09/2018 15:15:00,10.9,10.9,1,1.71
 04/09/2018 15:30:00,10.88,10.9,1,1.84
 04/09/2018 15:45:00,10.87,10.9,1,1.54
 04/09/2018 16:00:00,10.85,10.9,1,1.06
 04/09/2018 16:15:00,10.84,10.9,1,0.32
 04/09/2018 16:30:00,10.82,10.9,1,0.15
 04/09/2018 16:45:00,10.78,10.9,1,-0.59
 04/09/2018 17:00:00,10.76,10.9,1,-0.64
 04/09/2018 17:15:00,10.75,10.9,1,-0.58
 04/09/2018 17:30:00,10.71,10.9,1,-0.94
 04/09/2018 17:45:00,10.71,10.9,1,-1.22
 04/09/2018 18:00:00,10.69,10.9,1,-1.52
 04/09/2018 18:15:00,10.7,10.9,1,-1.67
 04/09/2018 18:30:00,10.69,10.9,1,-1.88
 04/09/2018 18:45:00,10.68,10.9,1,-1.95
 04/09/2018 19:00:00,10.69,10.9,1,-2.0
 04/09/2018 19:15:00,10.7,10.9,1,-2.06
 04/09/2018 19:30:00,10.7,10.9,1,-2.02
 04/09/2018 19:45:00,10.7,10.9,1,-2.02
 04/09/2018 20:00:00,10.7,10.9,1,-1.97
 04/09/2018 20:15:00,10.68,10.9,1,-1.91
 04/09/2018 20:30:00,10.68,10.9,1,-1.94
 04/09/2018 20:45:00,10.73,10.9,1,-1.9
 04/09/2018 21:00:00,10.77,10.9,1,-1.77
 04/09/2018 21:15:00,10.8,10.9,1,-1.74
 04/09/2018 21:30:00,10.83,10.9,1,-1.69
 04/09/2018 21:45:00,10.85,10.9,1,-1.66
 04/09/2018 22:00:00,10.85,10.9,1,-1.61
 04/09/2018 22:15:00,10.88,10.9,1,-1.53
 04/09/2018 22:30:00,10.86,10.9,1,-1.37
 04/09/2018 22:45:00,10.88,10.9,1,-1.26
 04/09/2018 23:00:00,10.92,10.9,1,-1.17
 04/09/2018 23:15:00,10.91,10.9,1,-1.14
 04/09/2018 23:30:00,10.89,10.9,1,-1.05
 04/09/2018 23:45:00,10.93,10.9,1,-0.96
 05/09/2018 00:00:00,10.92,10.9,1,-0.94
 05/09/2018 00:15:00,10.87,10.9,1,-0.94
 05/09/2018 00:30:00,10.87,10.9,1,-0.91
 05/09/2018 00:45:00,10.88,10.9,1,-0.8
 05/09/2018 01:00:00,10.87,10.9,1,-0.8
 05/09/2018 01:15:00,10.87,10.9,1,-0.8
 05/09/2018 01:30:00,10.89,10.9,1,-0.85
 05/09/2018 01:45:00,10.87,10.9,1,-0.91
 05/09/2018 02:00:00,10.91,10.9,1,-0.91
 05/09/2018 02:15:00,10.91,10.9,1,-0.9
 05/09/2018 02:30:00,10.94,10.9,1,-0.8
 05/09/2018 02:45:00,10.94,10.9,1,-0.8
 05/09/2018 03:00:00,10.91,10.9,1,-0.8
 05/09/2018 03:15:00,10.89,10.9,1,-0.8
 05/09/2018 03:30:00,10.9,10.9,1,-0.8
 05/09/2018 03:45:00,10.89,10.9,1,-0.8
 05/09/2018 04:00:00,10.9,10.9,1,-0.8
 05/09/2018 04:15:00,10.91,10.9,1,-0.8
 05/09/2018 04:30:00,10.92,10.9,1,-0.8
 05/09/2018 04:45:00,10.9,10.9,1,-0.8
 05/09/2018 05:00:00,10.89,10.9,1,-0.8
 05/09/2018 05:15:00,10.89,10.9,1,-0.86
 05/09/2018 05:30:00,10.87,10.9,1,-0.91
 05/09/2018 05:45:00,10.85,10.9,1,-0.91
 05/09/2018 06:00:00,10.84,10.9,1,-0.94
 05/09/2018 06:15:00,10.78,10.9,1,-1.11
 05/09/2018 06:30:00,10.77,10.9,1,-1.21
 05/09/2018 06:45:00,10.74,10.9,1,-1.32
 05/09/2018 07:00:00,10.71,10.9,1,-1.41
 05/09/2018 07:15:00,10.75,10.9,1,-1.52
 05/09/2018 07:30:00,10.75,10.9,1,-1.52
 05/09/2018 07:45:00,10.72,10.9,1,-1.38
 05/09/2018 08:00:00,10.74,10.9,1,-1.26
 05/09/2018 08:15:00,10.76,10.9,1,-0.79
 05/09/2018 08:30:00,10.77,10.9,1,-0.34
 05/09/2018 08:45:00,10.78,10.9,1,-0.09
 05/09/2018 09:00:00,10.79,10.9,1,0.2
 05/09/2018 09:15:00,10.78,10.9,1,0.41
 05/09/2018 09:30:00,10.81,10.9,1,0.43
 05/09/2018 09:45:00,10.82,10.9,1,0.75
 05/09/2018 10:00:00,10.85,10.9,1,1.04
 05/09/2018 10:15:00,10.85,10.9,1,1.24
 05/09/2018 10:30:00,10.86,10.9,1,1.46
 05/09/2018 10:45:00,10.86,10.9,1,1.54
 05/09/2018 11:00:00,10.86,10.9,1,1.72
 05/09/2018 11:15:00,10.85,10.9,1,1.61
 05/09/2018 11:30:00,10.84,10.9,1,1.13
 05/09/2018 11:45:00,10.82,10.9,1,0.74
 05/09/2018 12:00:00,10.83,10.9,1,0.75
 05/09/2018 12:15:00,10.81,10.9,1,0.08
 05/09/2018 12:30:00,10.82,10.9,1,1.24
 05/09/2018 12:45:00,10.82,10.9,1,0.79
 05/09/2018 13:00:00,10.85,10.9,1,1.7
 05/09/2018 13:15:00,10.84,10.9,1,2.47
 05/09/2018 13:30:00,10.85,10.9,1,2.79
 05/09/2018 13:45:00,10.86,10.9,1,2.32
 05/09/2018 14:00:00,10.87,10.9,1,2.69
 05/09/2018 14:15:00,10.85,10.9,1,2.17
 05/09/2018 14:30:00,10.85,10.9,1,2.5
 05/09/2018 14:45:00,10.86,10.9,1,2.28
 05/09/2018 15:00:00,10.88,10.9,1,2.01
 05/09/2018 15:15:00,10.89,10.9,1,2.17
 05/09/2018 15:30:00,10.88,10.9,1,2.04
 05/09/2018 15:45:00,10.89,10.9,1,1.71
 05/09/2018 16:00:00,10.89,10.9,1,2.21
 05/09/2018 16:15:00,10.92,10.9,1,1.65
 05/09/2018 16:30:00,10.9,10.9,1,1.32
 05/09/2018 16:45:00,10.87,10.9,1,1.19
 05/09/2018 17:00:00,10.86,10.9,1,0.68
 05/09/2018 17:15:00,10.85,10.9,1,0.16
 05/09/2018 17:30:00,10.8,10.9,1,-0.45
 05/09/2018 17:45:00,10.8,10.9,1,-0.5
 05/09/2018 18:00:00,10.78,10.9,1,-0.92
 05/09/2018 18:15:00,10.79,10.9,1,-1.17
 05/09/2018 18:30:00,10.8,10.9,1,-1.25
 05/09/2018 18:45:00,10.79,10.9,1,-1.51
 05/09/2018 19:00:00,10.78,10.9,1,-1.68
 05/09/2018 19:15:00,10.78,10.9,1,-1.8
 05/09/2018 19:30:00,10.77,10.9,1,-1.84
 05/09/2018 19:45:00,10.77,10.9,1,-1.83
 05/09/2018 20:00:00,10.77,10.9,1,-1.81
 05/09/2018 20:15:00,10.73,10.9,1,-1.94
 05/09/2018 20:30:00,10.75,10.9,1,-1.89
 05/09/2018 20:45:00,10.77,10.9,1,-1.88
 05/09/2018 21:00:00,10.81,10.9,1,-1.82
 05/09/2018 21:15:00,10.83,10.9,1,-1.75
 05/09/2018 21:30:00,10.87,10.9,1,-1.67
 05/09/2018 21:45:00,10.86,10.9,1,-1.53
 05/09/2018 22:00:00,10.88,10.9,1,-1.42
 05/09/2018 22:15:00,10.9,10.9,1,-1.45
 05/09/2018 22:30:00,10.91,10.9,1,-1.28
 05/09/2018 22:45:00,10.94,10.9,1,-1.19
 05/09/2018 23:00:00,10.99,10.9,1,-1.07
 05/09/2018 23:15:00,11.02,10.9,1,-1.03
 05/09/2018 23:30:00,10.94,10.9,1,-0.9
 05/09/2018 23:45:00,10.89,10.9,1,-0.91
 06/09/2018 00:00:00,10.9,10.9,1,-0.87
 06/09/2018 00:15:00,10.92,10.9,1,-0.91
 06/09/2018 00:30:00,10.93,10.9,1,-0.86
 06/09/2018 00:45:00,10.94,10.9,1,-0.8
 06/09/2018 01:00:00,10.96,10.9,1,-0.8
 06/09/2018 01:15:00,10.93,10.9,1,-0.8
 06/09/2018 01:30:00,10.91,10.9,1,-0.91
 06/09/2018 01:45:00,10.9,10.9,1,-0.94
 06/09/2018 02:00:00,10.95,10.9,1,-0.94
 06/09/2018 02:15:00,10.96,10.9,1,-0.91
 06/09/2018 02:30:00,10.96,10.9,1,-0.89
 06/09/2018 02:45:00,10.98,10.9,1,-0.86
 06/09/2018 03:00:00,11.0,10.9,1,-0.81
 06/09/2018 03:15:00,10.97,10.9,1,-0.82
 06/09/2018 03:30:00,10.97,10.9,1,-0.84
 06/09/2018 03:45:00,10.97,10.9,1,-0.84
 06/09/2018 04:00:00,10.99,10.9,1,-0.84
 06/09/2018 04:15:00,10.97,10.9,1,-0.84
 06/09/2018 04:30:00,10.96,10.9,1,-0.81
 06/09/2018 04:45:00,10.93,10.9,1,-0.8
 06/09/2018 05:00:00,10.92,10.9,1,-0.8
 06/09/2018 05:15:00,10.89,10.9,1,-0.88
 06/09/2018 05:30:00,10.87,10.9,1,-0.94
 06/09/2018 05:45:00,10.87,10.9,1,-0.94
 06/09/2018 06:00:00,10.84,10.9,1,-1.01
 06/09/2018 06:15:00,10.77,10.9,1,-1.18
 06/09/2018 06:30:00,10.81,10.9,1,-1.25
 06/09/2018 06:45:00,10.82,10.9,1,-1.34
 06/09/2018 07:00:00,10.79,10.9,1,-1.38
 06/09/2018 07:15:00,10.78,10.9,1,-1.46
 06/09/2018 07:30:00,10.76,10.9,1,-1.48
 06/09/2018 07:45:00,10.74,10.9,1,-1.37
 06/09/2018 08:00:00,10.74,10.9,1,-1.2
 06/09/2018 08:15:00,10.72,10.9,1,-1.05
 06/09/2018 08:30:00,10.71,10.9,1,-1.07
 06/09/2018 08:45:00,10.71,10.9,1,-0.9
 06/09/2018 09:00:00,10.75,10.9,1,0.0
 06/09/2018 09:15:00,10.73,10.9,1,0.12
 06/09/2018 09:30:00,10.74,10.9,1,0.32
 06/09/2018 09:45:00,10.76,10.9,1,0.17
 06/09/2018 10:00:00,10.75,10.9,1,-0.42
 06/09/2018 10:15:00,10.77,10.9,1,0.02
 06/09/2018 10:30:00,10.79,10.9,1,0.55
 06/09/2018 10:45:00,10.78,10.9,1,-0.03
 06/09/2018 11:00:00,10.76,10.9,1,-0.42
 06/09/2018 11:15:00,10.76,10.9,1,0.42
 06/09/2018 11:30:00,10.78,10.9,1,0.66
 06/09/2018 11:45:00,10.77,10.9,1,-0.09
 06/09/2018 12:00:00,10.76,10.9,1,-0.07
 06/09/2018 12:15:00,10.78,10.9,1,1.44
 06/09/2018 12:30:00,10.78,10.9,1,1.85
 06/09/2018 12:45:00,10.79,10.9,1,0.83
 06/09/2018 13:00:00,10.77,10.9,1,-0.07
 06/09/2018 13:15:00,10.78,10.9,1,-0.23
 06/09/2018 13:30:00,10.79,10.9,1,-0.08
 06/09/2018 13:45:00,10.8,10.9,1,0.66
 06/09/2018 14:00:00,10.83,10.9,1,1.39
 06/09/2018 14:15:00,10.79,10.9,1,0.54
 06/09/2018 14:30:00,10.79,10.9,1,0.26
 06/09/2018 14:45:00,10.8,10.9,1,0.18
 06/09/2018 15:00:00,10.81,10.9,1,0.43
 06/09/2018 15:15:00,10.81,10.9,1,0.24
 06/09/2018 15:30:00,10.8,10.9,1,-0.38
 06/09/2018 15:45:00,10.78,10.9,1,-0.41
 06/09/2018 16:00:00,10.72,10.9,1,-1.13
 06/09/2018 16:15:00,10.74,10.9,1,-1.21
 06/09/2018 16:30:00,10.75,10.9,1,-1.0
 06/09/2018 16:45:00,10.7,10.9,1,-1.28
 06/09/2018 17:00:00,10.7,10.9,1,-1.27
 06/09/2018 17:15:00,10.68,10.9,1,-1.63
 06/09/2018 17:30:00,10.65,10.9,1,-1.76
 06/09/2018 17:45:00,10.65,10.9,1,-1.83
 06/09/2018 18:00:00,10.64,10.9,1,-1.98
 06/09/2018 18:15:00,10.65,10.9,1,-2.02
 06/09/2018 18:30:00,10.66,10.9,1,-2.15
 06/09/2018 18:45:00,10.66,10.9,1,-2.19
 06/09/2018 19:00:00,10.66,10.9,1,-2.14
 06/09/2018 19:15:00,10.67,10.9,1,-2.1
 06/09/2018 19:30:00,10.7,10.9,1,-2.1
 06/09/2018 19:45:00,10.68,10.9,1,-2.08
 06/09/2018 20:00:00,10.68,10.9,1,-2.07
 06/09/2018 20:15:00,10.68,10.9,1,-2.11
 06/09/2018 20:30:00,10.72,10.9,1,-2.0
 06/09/2018 20:45:00,10.73,10.9,1,-1.89
 06/09/2018 21:00:00,10.76,10.9,1,-1.8
 06/09/2018 21:15:00,10.78,10.9,1,-1.81
 06/09/2018 21:30:00,10.77,10.9,1,-1.7
 06/09/2018 21:45:00,10.79,10.9,1,-1.64
 06/09/2018 22:00:00,10.8,10.9,1,-1.48
 06/09/2018 22:15:00,10.79,10.9,1,-1.44
 06/09/2018 22:30:00,10.78,10.9,1,-1.44
 06/09/2018 22:45:00,10.83,10.9,1,-1.31
 06/09/2018 23:00:00,10.86,10.9,1,-1.21
 06/09/2018 23:15:00,10.89,10.9,1,-1.08
 06/09/2018 23:30:00,10.84,10.9,1,-1.03
 06/09/2018 23:45:00,10.87,10.9,1,-0.9
 07/09/2018 00:00:00,10.91,10.9,1,-0.8
 07/09/2018 00:15:00,10.92,10.9,1,-0.91
 07/09/2018 00:30:00,10.94,10.9,1,-0.84
 07/09/2018 00:45:00,10.93,10.9,1,-0.94
 07/09/2018 01:00:00,10.93,10.9,1,-0.94
 07/09/2018 01:15:00,10.93,10.9,1,-0.94
 07/09/2018 01:30:00,10.94,10.9,1,-0.96
 07/09/2018 01:45:00,10.94,10.9,1,-0.97
 07/09/2018 02:00:00,10.97,10.9,1,-0.97
 07/09/2018 02:15:00,10.99,10.9,1,-0.97
 07/09/2018 02:30:00,10.99,10.9,1,-0.97
 07/09/2018 02:45:00,11.04,10.9,1,-0.97
 07/09/2018 03:00:00,11.01,10.9,1,-0.95
 07/09/2018 03:15:00,10.99,10.9,1,-0.93
 07/09/2018 03:30:00,10.99,10.9,1,-0.97
 07/09/2018 03:45:00,10.97,10.9,1,-0.96
 07/09/2018 04:00:00,10.98,10.9,1,-0.87
 07/09/2018 04:15:00,10.98,10.9,1,-0.87
 07/09/2018 04:30:00,10.99,10.9,1,-0.87
 07/09/2018 04:45:00,10.96,10.9,1,-0.87
 07/09/2018 05:00:00,10.97,10.9,1,-0.87
 07/09/2018 05:15:00,10.93,10.9,1,-0.98
 07/09/2018 05:30:00,10.93,10.9,1,-1.01
 07/09/2018 05:45:00,10.92,10.9,1,-1.01
 07/09/2018 06:00:00,10.91,10.9,1,-1.01
 07/09/2018 06:15:00,10.85,10.9,1,-1.19
 07/09/2018 06:30:00,10.82,10.9,1,-1.32
 07/09/2018 06:45:00,10.79,10.9,1,-1.42
 07/09/2018 07:00:00,10.78,10.9,1,-1.47
 07/09/2018 07:15:00,10.72,10.9,1,-1.71
 07/09/2018 07:30:00,10.69,10.9,1,-1.6
 07/09/2018 07:45:00,10.7,10.9,1,-1.44
 07/09/2018 08:00:00,10.7,10.9,1,-1.28
 07/09/2018 08:15:00,10.72,10.9,1,-0.76
 07/09/2018 08:30:00,10.7,10.9,1,-0.92
 07/09/2018 08:45:00,10.71,10.9,1,-0.36
 07/09/2018 09:00:00,10.75,10.9,1,0.0
 07/09/2018 09:15:00,10.74,10.9,1,0.34
 07/09/2018 09:30:00,10.77,10.9,1,0.73
 07/09/2018 09:45:00,10.79,10.9,1,1.03
 07/09/2018 10:00:00,10.82,10.9,1,1.33
 07/09/2018 10:15:00,10.82,10.9,1,1.55
 07/09/2018 10:30:00,10.82,10.9,1,1.71
 07/09/2018 10:45:00,10.81,10.9,1,2.02
 07/09/2018 11:00:00,10.81,10.9,1,1.58
 07/09/2018 11:15:00,10.8,10.9,1,1.38
 07/09/2018 11:30:00,10.81,10.9,1,1.33
 07/09/2018 11:45:00,10.79,10.9,1,2.12
 07/09/2018 12:00:00,10.82,10.9,1,1.93
 07/09/2018 12:15:00,10.84,10.9,1,1.32
 07/09/2018 12:30:00,10.87,10.9,1,1.38
 07/09/2018 12:45:00,10.87,10.9,1,1.8
 07/09/2018 13:00:00,10.87,10.9,1,1.16
 07/09/2018 13:15:00,10.87,10.9,1,1.83
 07/09/2018 13:30:00,10.89,10.9,1,2.78
 07/09/2018 13:45:00,10.89,10.9,1,2.07
 07/09/2018 14:00:00,10.9,10.9,1,2.7
 07/09/2018 14:15:00,10.9,10.9,1,2.81
 07/09/2018 14:30:00,10.9,10.9,1,2.74
 07/09/2018 14:45:00,10.93,10.9,1,2.77
 07/09/2018 15:00:00,10.95,10.9,1,2.21
 07/09/2018 15:15:00,10.96,10.9,1,2.54
 07/09/2018 15:30:00,10.95,10.9,1,1.85
 07/09/2018 15:45:00,10.96,10.9,1,1.86
 07/09/2018 16:00:00,10.97,10.9,1,1.98
 07/09/2018 16:15:00,10.92,10.9,1,1.73
 07/09/2018 16:30:00,10.9,10.9,1,1.42
 07/09/2018 16:45:00,10.87,10.9,1,1.13
 07/09/2018 17:00:00,10.86,10.9,1,0.86
 07/09/2018 17:15:00,10.85,10.9,1,0.55
 07/09/2018 17:30:00,10.81,10.9,1,0.16
 07/09/2018 17:45:00,10.78,10.9,1,-0.88
 07/09/2018 18:00:00,10.78,10.9,1,-0.87
 07/09/2018 18:15:00,10.77,10.9,1,-0.97
 07/09/2018 18:30:00,10.74,10.9,1,-1.23
 07/09/2018 18:45:00,10.74,10.9,1,-1.49
 07/09/2018 19:00:00,10.74,10.9,1,-1.72
 07/09/2018 19:15:00,10.73,10.9,1,-1.85
 07/09/2018 19:30:00,10.73,10.9,1,-1.86
 07/09/2018 19:45:00,10.71,10.9,1,-1.94
 07/09/2018 20:00:00,10.74,10.9,1,-1.94
 07/09/2018 20:15:00,10.78,10.9,1,-1.94
 07/09/2018 20:30:00,10.81,10.9,1,-1.86
 07/09/2018 20:45:00,10.83,10.9,1,-1.87
 07/09/2018 21:00:00,10.85,10.9,1,-1.81
 07/09/2018 21:15:00,10.8,10.9,1,-1.75
 07/09/2018 21:30:00,10.82,10.9,1,-1.68
 07/09/2018 21:45:00,10.82,10.9,1,-1.6
 07/09/2018 22:00:00,10.84,10.9,1,-1.48
 07/09/2018 22:15:00,10.82,10.9,1,-1.41
 07/09/2018 22:30:00,10.82,10.9,1,-1.32
 07/09/2018 22:45:00,10.85,10.9,1,-1.23
 07/09/2018 23:00:00,10.82,10.9,1,-1.15
 07/09/2018 23:15:00,10.84,10.9,1,-1.11
 07/09/2018 23:30:00,10.85,10.9,1,-1.06
 07/09/2018 23:45:00,10.89,10.9,1,-1.01
 08/09/2018 00:00:00,10.94,10.9,1,-0.94
 08/09/2018 00:15:00,10.96,10.9,1,-0.92
 08/09/2018 00:30:00,10.99,10.9,1,-0.94
 08/09/2018 00:45:00,10.99,10.9,1,-0.91
 08/09/2018 01:00:00,10.99,10.9,1,-0.88
 08/09/2018 01:15:00,10.96,10.9,1,-0.87
 08/09/2018 01:30:00,10.98,10.9,1,-0.91
 08/09/2018 01:45:00,10.98,10.9,1,-0.91
 08/09/2018 02:00:00,11.02,10.9,1,-0.91
 08/09/2018 02:15:00,11.03,10.9,1,-0.91
 08/09/2018 02:30:00,11.03,10.9,1,-0.91
 08/09/2018 02:45:00,10.97,10.9,1,-0.91
 08/09/2018 03:00:00,10.96,10.9,1,-0.91
 08/09/2018 03:15:00,10.92,10.9,1,-0.82
 08/09/2018 03:30:00,10.94,10.9,1,-0.8
 08/09/2018 03:45:00,10.94,10.9,1,-0.93
 08/09/2018 04:00:00,10.94,10.9,1,-0.92
 08/09/2018 04:15:00,10.95,10.9,1,-0.88
 08/09/2018 04:30:00,10.96,10.9,1,-0.85
 08/09/2018 04:45:00,10.94,10.9,1,-0.84
 08/09/2018 05:00:00,10.94,10.9,1,-0.84
 08/09/2018 05:15:00,10.92,10.9,1,-0.93
 08/09/2018 05:30:00,10.92,10.9,1,-0.97
 08/09/2018 05:45:00,10.89,10.9,1,-0.97
 08/09/2018 06:00:00,10.85,10.9,1,-0.97
 08/09/2018 06:15:00,10.8,10.9,1,-1.12
 08/09/2018 06:30:00,10.8,10.9,1,-1.17
 08/09/2018 06:45:00,10.75,10.9,1,-1.25
 08/09/2018 07:00:00,10.72,10.9,1,-1.27
 08/09/2018 07:15:00,10.77,10.9,1,-1.37
 08/09/2018 07:30:00,10.8,10.9,1,-1.28
 08/09/2018 07:45:00,10.8,10.9,1,-1.03
 08/09/2018 08:00:00,10.89,10.9,1,-1.06
 08/09/2018 08:15:00,10.85,10.9,1,-1.11
 08/09/2018 08:30:00,10.82,10.9,1,-0.94
 08/09/2018 08:45:00,10.78,10.9,1,-0.87
 08/09/2018 09:00:00,10.77,10.9,1,-0.85
 08/09/2018 09:15:00,10.77,10.9,1,-0.78
 08/09/2018 09:30:00,10.79,10.9,1,-0.74
 08/09/2018 09:45:00,10.78,10.9,1,-0.77
 08/09/2018 10:00:00,10.8,10.9,1,-0.58
 08/09/2018 10:15:00,10.83,10.9,1,-0.67
 08/09/2018 10:30:00,10.8,10.9,1,-0.6
 08/09/2018 10:45:00,10.82,10.9,1,-0.44
 08/09/2018 11:00:00,10.83,10.9,1,-0.3
 08/09/2018 11:15:00,10.83,10.9,1,-0.36
 08/09/2018 11:30:00,10.81,10.9,1,-0.4
 08/09/2018 11:45:00,10.81,10.9,1,-0.41
 08/09/2018 12:00:00,10.84,10.9,1,-0.48
 08/09/2018 12:15:00,10.89,10.9,1,0.3
 08/09/2018 12:30:00,10.9,10.9,1,0.29
 08/09/2018 12:45:00,10.89,10.9,1,-0.46
 08/09/2018 13:00:00,10.89,10.9,1,-0.9
 08/09/2018 13:15:00,10.9,10.9,1,-0.3
 08/09/2018 13:30:00,10.91,10.9,1,0.05
 08/09/2018 13:45:00,10.94,10.9,1,0.14
 08/09/2018 14:00:00,10.96,10.9,1,0.06
 08/09/2018 14:15:00,10.96,10.9,1,0.17
 08/09/2018 14:30:00,10.98,10.9,1,0.07
 08/09/2018 14:45:00,10.94,10.9,1,-0.91
 08/09/2018 15:00:00,10.94,10.9,1,-0.89
 08/09/2018 15:15:00,10.96,10.9,1,-0.62
 08/09/2018 15:30:00,10.98,10.9,1,-0.62
 08/09/2018 15:45:00,10.96,10.9,1,-0.49
 08/09/2018 16:00:00,10.95,10.9,1,-0.68
 08/09/2018 16:15:00,10.91,10.9,1,-0.99
 08/09/2018 16:30:00,10.9,10.9,1,-0.97
 08/09/2018 16:45:00,10.86,10.9,1,-1.04
 08/09/2018 17:00:00,10.83,10.9,1,-1.18
 08/09/2018 17:15:00,10.79,10.9,1,-1.22
 08/09/2018 17:30:00,10.77,10.9,1,-1.37
 08/09/2018 17:45:00,10.74,10.9,1,-1.68
 08/09/2018 18:00:00,10.75,10.9,1,-1.68
 08/09/2018 18:15:00,10.74,10.9,1,-1.75
 08/09/2018 18:30:00,10.74,10.9,1,-1.84
 08/09/2018 18:45:00,10.76,10.9,1,-2.12
 08/09/2018 19:00:00,10.77,10.9,1,-2.15
 08/09/2018 19:15:00,10.75,10.9,1,-2.21
 08/09/2018 19:30:00,10.77,10.9,1,-2.21
 08/09/2018 19:45:00,10.78,10.9,1,-2.16
 08/09/2018 20:00:00,10.76,10.9,1,-1.95
 08/09/2018 20:15:00,10.71,10.9,1,-1.97
 08/09/2018 20:30:00,10.74,10.9,1,-1.85
 08/09/2018 20:45:00,10.75,10.9,1,-1.84
 08/09/2018 21:00:00,10.78,10.9,1,-1.74
 08/09/2018 21:15:00,10.78,10.9,1,-1.76
 08/09/2018 21:30:00,10.83,10.9,1,-1.72
 08/09/2018 21:45:00,10.86,10.9,1,-1.61
 08/09/2018 22:00:00,10.84,10.9,1,-1.49
 08/09/2018 22:15:00,10.84,10.9,1,-1.41
 08/09/2018 22:30:00,10.85,10.9,1,-1.36
 08/09/2018 22:45:00,10.88,10.9,1,-1.27
 08/09/2018 23:00:00,10.94,10.9,1,-1.26
 08/09/2018 23:15:00,10.95,10.9,1,-1.17
 08/09/2018 23:30:00,10.95,10.9,1,-1.13
 08/09/2018 23:45:00,10.97,10.9,1,-1.04
 09/09/2018 00:00:00,11.01,10.9,1,-1.01
 09/09/2018 00:15:00,10.97,10.9,1,-1.04
 09/09/2018 00:30:00,10.88,10.9,1,-0.93
 09/09/2018 00:45:00,10.89,10.9,1,-0.93
 09/09/2018 01:00:00,10.92,10.9,1,-0.88
 09/09/2018 01:15:00,10.86,10.9,1,-1.0
 09/09/2018 01:30:00,10.87,10.9,1,-1.07
 09/09/2018 01:45:00,10.89,10.9,1,-1.03
 09/09/2018 02:00:00,10.92,10.9,1,-0.97
 09/09/2018 02:15:00,10.92,10.9,1,-0.97
 09/09/2018 02:30:00,10.93,10.9,1,-0.97
 09/09/2018 02:45:00,10.93,10.9,1,-0.86
 09/09/2018 03:00:00,10.93,10.9,1,-0.84
 09/09/2018 03:15:00,10.83,10.9,1,-0.97